PST,Max TemperatureF,Mean TemperatureF,Min TemperatureF,Max Dew PointF,MeanDew PointF,Min DewpointF,Max Humidity, Mean Humidity, Min Humidity, Max Sea Level PressureIn, Mean Sea Level PressureIn, Min Sea Level PressureIn, Max VisibilityMiles, Mean VisibilityMiles, Min VisibilityMiles, Max Wind SpeedMPH, Mean Wind SpeedMPH, Max Gust SpeedMPH,PrecipitationIn, CloudCover, Events, WindDirDegrees
2014-2-1,46,40,35,36,35,32,93,79,60,30.18,30.14,30.10,10,10,10,8,3,,0.00,6,,102
2014-2-2,41,38,35,34,31,19,89,77,47,30.09,30.03,29.99,10,10,10,7,4,,0.00,8,,129
2014-2-3,39,32,25,25,17,11,72,52,33,30.25,30.16,30.07,10,10,10,10,6,,0.00,4,,113
2014-2-4,32,29,26,20,17,12,72,59,44,30.42,30.34,30.25,10,10,10,8,6,,0.00,6,,92
2014-2-5,30,26,19,18,9,2,69,51,33,30.48,30.41,30.30,10,10,10,15,13,22,0.00,1,,104
2014-2-6,28,24,19,10,4,1,65,46,30,30.28,30.01,29.80,10,10,10,12,9,,0.00,0,,117
2014-2-7,34,24,15,21,14,10,80,63,44,29.94,29.88,29.81,10,10,10,14,9,,0.00,1,,128
2014-2-8,35,29,23,21,17,12,68,56,46,30.05,29.96,29.89,10,10,10,13,7,,0.00,1,,165
2014-2-9,39,34,28,31,28,21,92,75,64,30.09,30.05,29.96,10,10,9,7,4,,0.00,8,,131
2014-2-10,46,38,30,43,36,28,100,89,63,30.04,29.97,29.91,10,8,2,15,4,22,0.41,7,Rain,213
2014-2-11,46,40,33,40,36,29,96,80,61,30.11,29.90,29.38,10,10,4,10,6,,0.20,4,Rain,224
2014-2-12,52,46,39,44,38,35,97,77,57,29.87,29.68,29.29,10,10,6,22,8,32,0.09,6,Rain,287
2014-2-13,55,47,39,42,37,33,97,75,43,30.05,29.89,29.69,10,9,4,21,7,36,0.12,4,Rain,223
2014-2-14,55,46,36,45,38,33,100,82,51,29.93,29.74,29.49,10,10,5,13,4,18,0.21,5,Rain,257
2014-2-15,46,40,34,41,37,32,96,87,70,29.92,29.57,29.11,10,10,6,21,3,31,0.47,7,Rain,235
2014-2-16,45,39,33,39,35,31,100,83,60,29.87,29.71,29.58,10,8,2,13,6,29,0.91,6,Rain-Snow,191
2014-2-17,46,41,36,39,37,33,97,86,71,29.89,29.75,29.66,10,10,4,13,6,21,0.33,6,Rain,246
2014-2-18,45,40,34,42,36,31,97,86,70,29.89,29.68,29.49,10,9,3,15,5,40,0.64,7,Rain,246
2014-2-19,46,40,35,37,33,29,93,78,53,30.10,30.00,29.84,10,10,8,17,9,25,0.08,6,Rain,256
2014-2-20,48,44,39,39,34,27,93,70,53,30.20,30.09,29.95,10,10,10,16,8,25,0.03,5,Rain,284
2014-2-21,45,40,36,32,30,28,79,67,53,30.29,30.26,30.21,10,10,10,13,9,24,0.00,5,,279
2014-2-22,37,35,33,36,33,28,96,87,73,30.24,30.13,30.02,10,9,2,9,3,,0.18,8,Rain-Snow,215
2014-2-23,37,35,33,35,33,32,100,94,89,30.08,30.00,29.96,10,4,1,8,3,,0.55,8,Rain-Snow,145
2014-2-24,37,36,34,37,36,35,100,99,96,30.16,30.09,30.06,10,5,2,10,6,17,1.18,8,Rain-Snow,71
2014-2-25,43,38,32,37,34,30,100,84,62,30.18,30.12,30.02,10,10,5,9,5,,0.01,6,,114
2014-2-26,45,38,32,37,34,30,97,84,65,30.01,29.90,29.74,10,10,10,7,2,,0.00,6,,100
2014-2-27,48,40,32,42,36,30,96,82,56,29.77,29.71,29.67,10,10,7,7,2,,0.01,6,Rain,124
2014-2-28,51,43,35,43,37,25,93,79,41,29.77,29.68,29.60,10,10,9,10,3,,0.00,5,,106